Home   Weather   Wörgl   Past weeks
Flag for Austria

Past Weather in Wörgl, Tyrol, Austria — Yesterday and Last 2 Weeks

Now
54 °F

Cool.


Feels Like: 54 °F
Forecast: 66 / 43 °F
Wind: No wind

Location: Kufstein

Current Time: Oct 17, 2019 at 1:49:14 pm

Latest Report: Oct 17, 2019 at 12:00 pm


Visibility: N/A

Pressure: 30.07 "Hg (28.28 "Hg at 514m altitude)

Humidity: 72%

Dew Point: 45 °F

Location of WörglLocation

Past Weather in Wörgl — Graph

°F

Wörgl Temperature Yesterday

Maximum temperature yesterday: 63 °F (at 5:00 pm)
Minimum temperature yesterday: 47 °F (at 11:00 pm)
Average temperature yesterday: 54 °F

High & Low Weather Summary for the Past Weeks

 TemperatureHumidityPressure
High78 °F (Oct 15, 3:00 pm)97% (Oct 7, 11:00 pm)30.31 "Hg (Oct 7, 11:00 pm)
Low37 °F (Oct 4, 6:00 am)32% (Oct 15, 2:00 pm)29.64 "Hg (Oct 15, 3:00 pm)
Average50 °F83%30.03 "Hg
* Reported Oct 2 12:00 pm — Oct 17 12:00 pm, Wörgl. Weather by CustomWeather, © 2019

Note: Actual official high and low records may vary slightly from our data, if they occured in-between our weather recording intervals... More about our weather records

Advertising

Wörgl Weather History for the Previous 24 Hours

Scroll right to see more
 ConditionsComfort  
Time TempWeatherWind HumidityBarometerVisibility
12:00 pm
Thu, Oct 17
54 °FCool.No wind72%30.07 "HgN/A
11:00 am50 °FCool.1 mph80%30.10 "HgN/A
10:00 am44 °FQuite cool.1 mph92%30.14 "HgN/A
9:00 am43 °FQuite cool.No wind91%30.14 "HgN/A
8:00 am44 °FQuite cool.2 mph92%30.13 "HgN/A
7:00 am44 °FPassing clouds.3 mph92%30.10 "Hg9 mi
6:00 am44 °FQuite cool.2 mph91%30.10 "HgN/A
5:00 am44 °FQuite cool.1 mph91%30.09 "HgN/A
4:00 am45 °FCool.2 mph92%30.08 "HgN/A
3:00 am46 °FCool.2 mph89%30.08 "HgN/A
2:00 am46 °FCool.2 mph91%30.08 "HgN/A
1:00 am46 °FCool.1 mph92%30.08 "HgN/A
12:00 am46 °FCool.1 mph92%30.08 "HgN/A
11:00 pm
Wed, Oct 16
47 °FCool.No wind92%30.07 "HgN/A
10:00 pm48 °FCool.No wind90%30.07 "HgN/A
9:00 pm49 °FCool.No wind88%30.06 "HgN/A
8:00 pm51 °FCool.1 mph86%30.04 "HgN/A
7:00 pm53 °FCool.No wind79%30.02 "HgN/A
6:00 pm58 °FCool.2 mph65%29.99 "HgN/A
5:00 pm63 °FMild.1 mph52%29.97 "HgN/A
4:00 pm63 °FMild.2 mph52%29.98 "HgN/A
3:00 pm62 °FRefreshingly cool.2 mph51%30.00 "HgN/A
2:00 pm60 °FRefreshingly cool.1 mph58%30.03 "HgN/A
1:00 pm58 °FCool.2 mph63%30.05 "HgN/A
Weather by CustomWeather, © 2019

See weather overview